This is the latest recevied weather packets stored in our database for station/object WB4YDL. If no packets are shown the sender has not sent any weather packets the latest 10 day(s).
| Time | Temp. | Humidity | Pressure | Rain* | Wind** | Luminosity | Snow |
|---|---|---|---|---|---|---|---|
| 1777731887 | 16.11° C | 61% | 1012.9 hPa | 0 mm | - | 525 W/m² | - |
| 1777731584 | 15° C | 64% | 1012.7 hPa | 0 mm | - | 511 W/m² | - |
| 1777731282 | 15° C | 64% | 1012.9 hPa | 0 mm | - | 281 W/m² | - |
| 1777730979 | 15° C | 66% | 1013 hPa | 0 mm | - | 269 W/m² | - |
| 1777730678 | 15° C | 62% | 1012.9 hPa | 0 mm | - | 225 W/m² | - |
| 1777730373 | 15° C | 65% | 1012.7 hPa | 0 mm | - | 253 W/m² | - |
| 1777730069 | 14.44° C | 65% | 1012.7 hPa | 0 mm | - | 213 W/m² | - |
| 1777729766 | 14.44° C | 62% | 1012.7 hPa | 0 mm | - | 308 W/m² | - |
| 1777729463 | 14.44° C | 63% | 1012.8 hPa | 0 mm | - | 218 W/m² | - |
| 1777729160 | 14.44° C | 64% | 1012.8 hPa | 0 mm | - | 181 W/m² | - |
| 1777728856 | 14.44° C | 65% | 1012.5 hPa | 0 mm | - | 244 W/m² | - |
| 1777728553 | 13.89° C | 64% | 1012.5 hPa | 0 mm | - | 187 W/m² | - |
| 1777728250 | 13.89° C | 65% | 1012.7 hPa | 0 mm | - | 219 W/m² | - |
| 1777727948 | 13.89° C | 68% | 1012.4 hPa | 0 mm | - | 217 W/m² | - |
| 1777727644 | 13.89° C | 69% | 1012.6 hPa | 0 mm | - | 350 W/m² | - |
| 1777727341 | 13.89° C | 73% | 1012.6 hPa | 0 mm | - | 152 W/m² | - |
| 1777727039 | 13.89° C | 72% | 1012.7 hPa | 0 mm | - | 201 W/m² | - |
| 1777726735 | 13.89° C | 73% | 1012.7 hPa | 0 mm | - | 197 W/m² | - |
| 1777726433 | 13.33° C | 85% | 1012.7 hPa | 0 mm | - | 171 W/m² | - |
| 1777726130 | 12.22° C | 92% | 1012.8 hPa | 0 mm | - | 153 W/m² | - |
| 1777725827 | 11.67° C | 94% | 1012.4 hPa | 0 mm | - | 137 W/m² | - |
| 1777725524 | 10.56° C | 97% | 1012.6 hPa | 0 mm | - | 118 W/m² | - |
| 1777725222 | 10.56° C | 98% | 1012.4 hPa | 0 mm | - | 104 W/m² | - |
| 1777724919 | 9.44° C | 99% | 1012.5 hPa | 0 mm | - | 95 W/m² | - |
| 1777724614 | 9.44° C | 99% | 1012.6 hPa | 0 mm | - | 84 W/m² | - |
* Rain latest hour (hover to see other rain measurements)
** Current wind speed in m/s (hover to see current wind gust speed)